This demonstration page uses our WeatherBlox Daily Observations layout. Learn more.

Left ArrowRight Arrow

Hourly Observations for June 13, 2020

Temp ( °F °C ) Dew Point ( °F °C ) Humidity (%) Winds ( mph kmh ) Pressure ( in mb ) Visibility ( mi km ) Precip ( " mm )
12:53 am 00:53 Clear 75 23.9 35 1.7 23 23 SE 8 13 30.04 1017 10 16 0.00 0.00
1:53 am 01:53 Clear 73 22.8 37 2.8 27 27 SE 9 15 30.03 1017 10 16 0.00 0.00
2:53 am 02:53 Clear 72 22.2 40 4.4 31 31 SE 10 17 30.01 1016 10 16 0.00 0.00
3:53 am 03:53 Clear 71 21.7 42 5.6 35 35 SE 10 17 30.00 1016 10 16 0.00 0.00
4:53 am 04:53 Clear 69 20.6 42 5.6 38 38 SE 8 13 30.00 1016 10 16 0.00 0.00
5:53 am 05:53 Clear 66 18.9 42 5.6 42 42 ESE 7 11 30.01 1016 10 16 0.00 0.00
6:53 am 06:53 Sunny 67 19.4 41 5 39 39 ESE 10 17 30.02 1017 10 16 0.00 0.00
7:53 am 07:53 Sunny 69 20.6 43 6.1 39 39 ESE 14 22 30.02 1017 10 16 0.00 0.00
8:53 am 08:53 Sunny 75 23.9 46 7.8 36 36 SE 16 26 30.04 1017 10 16 0.00 0.00
9:53 am 09:53 Sunny 80 26.7 47 8.3 31 31 SE 16 26 30.03 1017 10 16 0.00 0.00
10:53 am 10:53 Sunny 84 28.9 45 7.2 25 25 SSE 21 33 30.02 1017 10 16 0.00 0.00
11:53 am 11:53 Sunny 87 30.6 42 5.6 21 21 S 21 33 30.01 1016 10 16 0.00 0.00
12:53 pm 12:53 Sunny 91 32.8 42 5.6 18 18 SSE 20 31 29.99 1016 10 16 0.00 0.00
1:53 pm 13:53 Sunny 93 33.9 41 5 16 16 SSE 21 33 29.97 1015 10 16 0.00 0.00
2:53 pm 14:53 Sunny 95 35 39 3.9 14 14 SSE 21 33 29.93 1014 10 16 0.00 0.00
3:53 pm 15:53 Sunny 95 35 36 2.2 13 13 SSE 15 24 29.91 1013 10 16 0.00 0.00
4:53 pm 16:53 Sunny 96 35.6 39 3.9 14 14 S 16 26 29.88 1012 10 16 0.00 0.00
5:53 pm 17:53 Sunny 95 35 41 5 15 15 SE 20 31 29.86 1011 10 16 0.00 0.00
6:53 pm 18:53 Sunny 94 34.4 41 5 16 16 SE 21 33 29.85 1011 10 16 0.00 0.00
7:53 pm 19:53 Sunny 92 33.3 41 5 17 17 SSE 21 33 29.86 1011 10 16 0.00 0.00
8:53 pm 20:53 Sunny 88 31.1 41 5 19 19 SSE 20 31 29.87 1011 10 16 0.00 0.00
9:53 pm 21:53 Clear 85 29.4 41 5 21 21 SSE 13 20 29.87 1012 10 16 0.00 0.00
10:53 pm 22:53 Clear 82 27.8 42 5.6 24 24 SSE 15 24 29.89 1012 10 16 0.00 0.00
11:53 pm 23:53 Clear 80 26.7 43 6.1 27 27 S 12 19 29.90 1013 10 16 0.00 0.00

Powered by AerisWeather